Location: Buckenweiler
(49.0667°N, 10.2500°E)
Time: 17:55:43
(UTC+00:00)

Cosmos 1862 Rocket - Pass Details

Date: 18 January 2026
Orbit: 596 x 627 km, 82.5° (Epoch: 18 February)

Event Time Altitude Azimuth Distance (km) Brightness Sun altitude
Exits shadow 05:59:53 - 340° (NNW) 2,653 6.4 -10.6°
Reaches altitude 10° 06:01:43 10° 332° (NNW) 1,965 5.7 -10.3°
Maximum altitude 06:05:33 31° 270° (W) 1,060 4.3 -9.7°
Drops below altitude 10° 06:09:20 10° 208° (SSW) 1,937 6.0 -9.1°
Sets 06:11:41 0° 198° (SSW) 2,831 7.0 -8.8°
